Weather History for Manitowoc, WI

Change the Weather History Date:

Sunday, September 29, 2013

  Actual Average Record
Temperature  
Mean Temperature 57 °F -  
Max Temperature 66 °F 63 °F 74 °F (1954)
Min Temperature 48 °F 46 °F 30 °F (1961)
Degree Days  
Heating Degree Days 8    
Growing Degree Days 7 (Base 50)    
Moisture  
Dew Point 49 °F    
Average Humidity 77    
Maximum Humidity 97    
Minimum Humidity 47    
Precipitation  
Precipitation 0.02 in - - ()
Sea Level Pressure  
Sea Level Pressure 30.07 in    
Wind  
Wind Speed 7 mph (West)    
Max Wind Speed 13 mph    
Max Gust Speed -    
Visibility 10 miles    
Events Rain    
Averages and records for this station are not official NWS values.
T = Trace of Precipitation, MM = Missing Value Source: NWS Daily Summary

Daily Weather History Graph

Daily Weather History Graph

Search for Another Location

Airport:

Trip Planner

Search our weather history database for the weather conditions in past years. The results will help you decide how hot, cold, wet, or windy it might be!

Date:

Astronomy

Sep. 29, 2013 Rise Set
Actual Time 6:46 AM CDT 6:34 PM CDT
Civil Twilight 6:17 AM CDT 7:03 PM CDT
Nautical Twilight 5:43 AM CDT 7:37 PM CDT
Astronomical Twilight 5:09 AM CDT 8:11 PM CDT
Moon 1:17 AM CDT (9/29) 3:39 PM CDT (9/29)
Length of Visible Light 12h 45m
Length of Day
11h 48m
Waning Crescent, 27% of the Moon is Illuminated
Sep 29
Waning Crescent
Oct 4
New
Oct 11
First Quarter
Oct 18
Full
Oct 26
Last Quarter

Hourly Weather History & Observations

Time (CDT) Temp. Dew Point Humidity Pressure Visibility Wind Dir Wind Speed Gust Speed Precip Events Conditions
12:40 AM 55.4 °F 53.6 °F 94% 29.94 in 10.0 mi WNW 12.7 mph - 0.02 in Rain Light Rain
12:56 AM 55.9 °F 53.1 °F 90% 30.00 in 10.0 mi WNW 9.2 mph - 0.02 in Rain Light Rain
1:17 AM 55.4 °F 51.8 °F 88% 29.95 in 10.0 mi WNW 6.9 mph - 0.00 in   Partly Cloudy
1:56 AM 54.0 °F 51.1 °F 90% 30.01 in 10.0 mi WNW 6.9 mph - 0.00 in   Clear
2:56 AM 53.1 °F 51.1 °F 93% 30.02 in 10.0 mi WNW 5.8 mph - N/A   Clear
3:56 AM 52.0 °F 50.0 °F 93% 30.04 in 10.0 mi West 5.8 mph - N/A   Clear
4:56 AM 51.1 °F 48.9 °F 92% 30.05 in 10.0 mi WNW 3.5 mph - N/A   Clear
5:56 AM 50.0 °F 48.0 °F 93% 30.07 in 10.0 mi WNW 6.9 mph - N/A   Clear
6:56 AM 48.9 °F 48.0 °F 97% 30.09 in 10.0 mi WNW 4.6 mph - N/A   Clear
7:56 AM 51.1 °F 48.9 °F 92% 30.09 in 10.0 mi NW 5.8 mph - N/A   Clear
8:56 AM 54.0 °F 50.0 °F 86% 30.10 in 10.0 mi WNW 6.9 mph - N/A   Clear
9:56 AM 57.9 °F 48.9 °F 72% 30.12 in 10.0 mi NW 6.9 mph - N/A   Clear
10:56 AM 62.1 °F 45.0 °F 53% 30.12 in 10.0 mi Variable 4.6 mph - N/A   Clear
11:56 AM 64.0 °F 45.0 °F 50% 30.12 in 10.0 mi Variable 4.6 mph - N/A   Clear
12:56 PM 66.0 °F 45.0 °F 47% 30.10 in 10.0 mi Variable 5.8 mph - N/A   Clear
1:56 PM 64.9 °F 46.9 °F 52% 30.09 in 4.0 mi SE 10.4 mph - N/A   Haze
2:56 PM 64.0 °F 46.9 °F 54% 30.08 in 10.0 mi SE 10.4 mph - N/A   Clear
3:56 PM 64.0 °F 48.0 °F 56% 30.08 in 10.0 mi SSE 9.2 mph - N/A   Clear
4:56 PM 63.0 °F 48.9 °F 60% 30.08 in 10.0 mi South 9.2 mph - N/A   Clear
5:56 PM 61.0 °F 48.9 °F 64% 30.08 in 10.0 mi South 9.2 mph - N/A   Clear
6:56 PM 57.0 °F 48.0 °F 72% 30.08 in 10.0 mi South 4.6 mph - N/A   Clear
7:56 PM 55.0 °F 48.0 °F 77% 30.09 in 10.0 mi SSW 4.6 mph - N/A   Clear
8:56 PM 54.0 °F 48.0 °F 80% 30.09 in 10.0 mi Calm Calm - N/A   Clear
9:56 PM 50.0 °F 48.0 °F 93% 30.09 in 10.0 mi Calm Calm - N/A   Clear
10:56 PM 51.1 °F 46.9 °F 86% 30.08 in 10.0 mi SSE 3.5 mph - N/A   Clear
11:56 PM 52.0 °F 48.0 °F 86% 30.08 in 10.0 mi Calm Calm - N/A   Clear